When you browse on this site, cookies collect data to enhance your experience and personalize the content and advertising you see.
Visit our Privacy Policy to learn more. By continuing to use the site, you agree to this use of cookies and data.
  • In Hungary
  • List of Countries
  • For 7 days
  • Water Temperature
  • Weather Map
  • News
  • Weather Widgets
  • user-avatar
    Login

    Hourly Weather Nizhniy Shkaft

    Today, 14 October, Monday

    Time Temperature Precipitation Wind Pressure Humidity
    00:00 +8°C° 0 mm 4 mps 746 mmHg 81%
    01:00 +8°C° 0 mm 4 mps 746 mmHg 85%
    02:00 +7°C° 0 mm 4 mps 747 mmHg 88%
    03:00 +7°C° 0 mm 5 mps 747 mmHg 92%
    04:00 +6°C° 0 mm 4 mps 747 mmHg 93%
    05:00 +6°C° 0 mm 4 mps 747 mmHg 94%
    06:00 +6°C° 0 mm 4 mps 748 mmHg 95%
    07:00 +7°C° 0 mm 5 mps 748 mmHg 93%
    08:00 +7°C° 0 mm 5 mps 749 mmHg 90%
    09:00 +8°C° 0 mm 5 mps 749 mmHg 88%
    10:00 +9°C° 0 mm 5 mps 749 mmHg 84%
    11:00 +10°C° 0 mm 5 mps 749 mmHg 80%
    12:00 +10°C° 0 mm 5 mps 750 mmHg 76%
    13:00 +12°C° 0 mm 5 mps 750 mmHg 74%
    14:00 +12°C° 0 mm 5 mps 750 mmHg 73%
    15:00 +12°C° 0 mm 5 mps 750 mmHg 71%
    16:00 +11°C° 0 mm 4 mps 750 mmHg 76%
    17:00 +11°C° 0 mm 3 mps 750 mmHg 80%
    18:00 +10°C° 0 mm 2 mps 750 mmHg 85%
    19:00 +10°C° 0 mm 3 mps 750 mmHg 85%
    20:00 +10°C° 0 mm 3 mps 749 mmHg 85%
    21:00 +10°C° 0 mm 3 mps 749 mmHg 85%
    22:00 +11°C° 0.2 mm 4 mps 748 mmHg 86%
    23:00 +10°C° 0.2 mm 5 mps 747 mmHg 87%

    Tomorrow, 15 October, Tuesday

    Time Temperature Precipitation Wind Pressure Humidity
    00:00 +10°C° 0.2 mm 6 mps 747 mmHg 88%
    01:00 +11°C° 0.2 mm 6 mps 746 mmHg 87%
    02:00 +13°C° 0.2 mm 6 mps 745 mmHg 86%
    03:00 +13°C° 0.2 mm 6 mps 744 mmHg 86%
    04:00 +13°C° 0 mm 6 mps 744 mmHg 85%
    05:00 +13°C° 0 mm 6 mps 744 mmHg 85%
    06:00 +11°C° 0 mm 6 mps 743 mmHg 84%
    07:00 +12°C° 0 mm 7 mps 744 mmHg 84%
    08:00 +12°C° 0 mm 7 mps 744 mmHg 84%
    09:00 +12°C° 0 mm 7 mps 744 mmHg 84%
    10:00 +14°C° 0 mm 7 mps 744 mmHg 80%
    11:00 +14°C° 0 mm 7 mps 745 mmHg 77%
    12:00 +15°C° 0 mm 7 mps 745 mmHg 74%
    13:00 +14°C° 0.1 mm 7 mps 746 mmHg 73%
    14:00 +14°C° 0.1 mm 7 mps 746 mmHg 73%
    15:00 +14°C° 0.1 mm 6 mps 747 mmHg 72%
    16:00 +11°C° 0 mm 6 mps 748 mmHg 75%
    17:00 +10°C° 0 mm 5 mps 748 mmHg 77%
    18:00 +8°C° 0 mm 4 mps 749 mmHg 79%
    19:00 +9°C° 0 mm 3 mps 750 mmHg 80%
    20:00 +8°C° 0 mm 3 mps 750 mmHg 81%
    21:00 +7°C° 0 mm 3 mps 751 mmHg 82%
    22:00 +5°C° 0 mm 3 mps 752 mmHg 83%
    23:00 +5°C° 0 mm 3 mps 752 mmHg 84%

    Day after tomorrow, 16 October, Wednesday

    Time Temperature Precipitation Wind Pressure Humidity
    00:00 +4°C° 0 mm 3 mps 752 mmHg 85%
    01:00 +4°C° 0 mm 2 mps 753 mmHg 87%
    02:00 +4°C° 0 mm 2 mps 754 mmHg 88%
    03:00 +3°C° 0 mm 2 mps 754 mmHg 90%
    04:00 +3°C° 0 mm 2 mps 755 mmHg 89%
    05:00 +3°C° 0 mm 2 mps 755 mmHg 88%
    06:00 +2°C° 0 mm 2 mps 755 mmHg 88%
    07:00 +3°C° 0 mm 2 mps 756 mmHg 82%
    08:00 +3°C° 0 mm 2 mps 756 mmHg 76%
    09:00 +3°C° 0 mm 3 mps 757 mmHg 71%
    10:00 +4°C° 0 mm 2 mps 757 mmHg 67%
    11:00 +5°C° 0 mm 2 mps 757 mmHg 62%
    12:00 +6°C° 0 mm 2 mps 757 mmHg 58%
    13:00 +6°C° 0 mm 2 mps 757 mmHg 57%
    14:00 +6°C° 0 mm 2 mps 757 mmHg 56%
    15:00 +7°C° 0 mm 1 mps 757 mmHg 56%
    16:00 +6°C° 0 mm 1 mps 757 mmHg 60%
    17:00 +5°C° 0 mm 1 mps 757 mmHg 65%
    18:00 +3°C° 0 mm 0 mps 757 mmHg 70%
    19:00 +4°C° 0 mm 1 mps 757 mmHg 71%
    20:00 +4°C° 0 mm 1 mps 757 mmHg 72%
    21:00 +4°C° 0 mm 1 mps 757 mmHg 73%
    22:00 +4°C° 0 mm 1 mps 757 mmHg 74%
    23:00 +3°C° 0 mm 1 mps 757 mmHg 76%

    17 October, Thursday

    Time Temperature Precipitation Wind Pressure Humidity
    00:00 +3°C° 0 mm 1 mps 757 mmHg 77%
    01:00 +2°C° 0 mm 2 mps 757 mmHg 76%
    02:00 +3°C° 0 mm 2 mps 756 mmHg 75%
    03:00 +2°C° 0 mm 3 mps 756 mmHg 74%
    04:00 +2°C° 0 mm 3 mps 756 mmHg 73%
    05:00 +2°C° 0 mm 3 mps 756 mmHg 73%
    06:00 +3°C° 0 mm 3 mps 755 mmHg 72%
    07:00 +4°C° 0 mm 4 mps 755 mmHg 70%
    08:00 +5°C° 0 mm 5 mps 754 mmHg 68%
    09:00 +5°C° 0 mm 6 mps 754 mmHg 66%
    10:00 +7°C° 0 mm 6 mps 753 mmHg 65%
    11:00 +8°C° 0 mm 6 mps 753 mmHg 63%
    12:00 +10°C° 0 mm 7 mps 752 mmHg 62%
    13:00 +10°C° 0 mm 7 mps 752 mmHg 62%
    14:00 +11°C° 0 mm 7 mps 751 mmHg 61%
    15:00 +11°C° 0 mm 7 mps 750 mmHg 61%
    16:00 +10°C° 0 mm 7 mps 750 mmHg 63%
    17:00 +10°C° 0 mm 6 mps 750 mmHg 66%
    18:00 +9°C° 0 mm 6 mps 749 mmHg 68%
    19:00 +9°C° 0 mm 6 mps 749 mmHg 71%
    20:00 +9°C° 0 mm 6 mps 749 mmHg 74%
    21:00 +9°C° 0 mm 6 mps 748 mmHg 76%
    22:00 +9°C° 0 mm 6 mps 748 mmHg 79%
    23:00 +9°C° 0 mm 5 mps 747 mmHg 82%

    18 October, Friday

    Time Temperature Precipitation Wind Pressure Humidity
    00:00 +10°C° 0 mm 5 mps 747 mmHg 85%
    01:00 +10°C° 0 mm 4 mps 747 mmHg 88%
    02:00 +10°C° 0 mm 4 mps 747 mmHg 91%
    03:00 +10°C° 0 mm 4 mps 746 mmHg 94%
    04:00 +10°C° 0 mm 4 mps 746 mmHg 95%
    05:00 +10°C° 0 mm 4 mps 747 mmHg 95%
    06:00 +10°C° 0 mm 4 mps 747 mmHg 96%
    07:00 +8°C° 0 mm 5 mps 747 mmHg 92%
    08:00 +8°C° 0 mm 5 mps 748 mmHg 87%
    09:00 +7°C° 0 mm 6 mps 749 mmHg 83%
    10:00 +7°C° 0 mm 6 mps 750 mmHg 76%
    11:00 +5°C° 0 mm 6 mps 751 mmHg 69%
    12:00 +4°C° 0 mm 6 mps 751 mmHg 62%
    13:00 +5°C° 0 mm 5 mps 752 mmHg 60%
    14:00 +5°C° 0 mm 5 mps 753 mmHg 59%
    15:00 +5°C° 0 mm 5 mps 753 mmHg 57%
    16:00 +4°C° 0 mm 4 mps 754 mmHg 62%
    17:00 +1°C° 0 mm 4 mps 754 mmHg 67%
    18:00 +1°C° 0 mm 3 mps 755 mmHg 72%
    19:00 +1°C° 0 mm 3 mps 756 mmHg 75%
    20:00 0°C° 0 mm 3 mps 756 mmHg 78%
    21:00 0°C° 0 mm 3 mps 757 mmHg 81%
    22:00 -1°C° 0 mm 2 mps 757 mmHg 83%
    23:00 -1°C° 0 mm 2 mps 757 mmHg 86%

    19 October, Saturday

    Time Temperature Precipitation Wind Pressure Humidity
    00:00 -2°C° 0 mm 2 mps 758 mmHg 88%
    01:00 0°C° 0 mm 1 mps 758 mmHg 88%
    02:00 0°C° 0 mm 1 mps 758 mmHg 88%
    03:00 0°C° 0 mm 1 mps 758 mmHg 88%
    04:00 0°C° 0 mm 1 mps 759 mmHg 88%
    05:00 -1°C° 0 mm 1 mps 759 mmHg 87%
    06:00 -1°C° 0 mm 1 mps 759 mmHg 87%
    07:00 0°C° 0 mm 1 mps 759 mmHg 79%
    08:00 +1°C° 0 mm 1 mps 759 mmHg 72%
    09:00 +2°C° 0 mm 1 mps 760 mmHg 64%
    10:00 +4°C° 0 mm 1 mps 760 mmHg 57%
    11:00 +5°C° 0 mm 1 mps 760 mmHg 51%
    12:00 +6°C° 0 mm 1 mps 760 mmHg 44%
    13:00 +7°C° 0 mm 1 mps 759 mmHg 45%
    14:00 +6°C° 0 mm 2 mps 759 mmHg 46%
    15:00 +6°C° 0 mm 2 mps 759 mmHg 47%
    16:00 +5°C° 0 mm 2 mps 758 mmHg 52%
    17:00 +3°C° 0 mm 2 mps 758 mmHg 58%
    18:00 +2°C° 0 mm 2 mps 758 mmHg 64%
    19:00 +2°C° 0 mm 2 mps 758 mmHg 65%
    20:00 +1°C° 0 mm 2 mps 758 mmHg 66%
    21:00 +1°C° 0 mm 2 mps 758 mmHg 68%
    22:00 +1°C° 0 mm 2 mps 758 mmHg 68%
    23:00 +1°C° 0 mm 2 mps 758 mmHg 68%
    Show more